Weather History for Evansville, IN

Change the Weather History Date:

Sunday, June 23, 2013

  Actual Average Record
Temperature  
Mean Temperature 76 °F 77 °F  
Max Temperature 82 °F 88 °F 100 °F (1988)
Min Temperature 69 °F 66 °F 45 °F (1972)
Degree Days  
Heating Degree Days 0 0  
Month to date heating degree days 1 4  
Since 1 June heating degree days 1 4  
Since 1 July heating degree days 4531 4545  
Cooling Degree Days 11 12  
Month to date cooling degree days 203 212  
Year to date cooling degree days 374 347  
Since 1 June cooling degree days 203 212  
Growing Degree Days 26 (Base 50)    
Moisture  
Dew Point 69 °F    
Average Humidity 80    
Maximum Humidity 90    
Minimum Humidity 69    
Precipitation  
Precipitation 0.25 in 0.11 in 3.01 in (1960)
Month to date precipitation 2.40 3.01  
Year to date precipitation 24.95 23.25  
Snow  
Snow 0.00 in 0.00 in - ()
Month to date snowfall 0.0 0.0  
Since 1 June snowfall 0.0 0.0  
Since 1 July snowfall 12.3 11.8  
Snow Depth 0.00 in    
Sea Level Pressure  
Sea Level Pressure 30.08 in    
Wind  
Wind Speed 3 mph (SSE)    
Max Wind Speed 16 mph    
Max Gust Speed 23 mph    
Visibility 8 miles    
Events Rain    
T = Trace of Precipitation, MM = Missing Value Source: NWS Daily Summary

Daily Weather History Graph

Daily Weather History Graph

Search for Another Location

Airport:

Trip Planner

Search our weather history database for the weather conditions in past years. The results will help you decide how hot, cold, wet, or windy it might be!

Date:

Astronomy

Jun. 23, 2013 Rise Set
Actual Time 5:28 AM CDT 8:16 PM CDT
Civil Twilight 4:56 AM CDT 8:48 PM CDT
Nautical Twilight 4:17 AM CDT 9:27 PM CDT
Astronomical Twilight 3:32 AM CDT 10:12 PM CDT
Moon 8:29 PM CDT (6/23) 5:44 AM CDT (6/23)
Length of Visible Light 15h 51m
Length of Day
14h 48m
Full, 100% of the Moon is Illuminated
Jun 23
Full
Jun 29
Last Quarter
Jul 8
New
Jul 15
First Quarter
Jul 22
Full

Hourly Weather History & Observations

Time (CDT) Temp. Heat Index Dew Point Humidity Pressure Visibility Wind Dir Wind Speed Gust Speed Precip Events Conditions
12:54 AM 72.0 °F - 66.9 °F 84% 30.04 in 10.0 mi ESE 3.5 mph - N/A   Clear
1:54 AM 72.0 °F - 66.9 °F 84% 30.03 in 10.0 mi SE 3.5 mph - N/A   Clear
2:54 AM 71.1 °F - 66.9 °F 87% 30.06 in 10.0 mi Calm Calm - N/A   Mostly Cloudy
3:54 AM 71.1 °F - 68.0 °F 90% 30.07 in 10.0 mi Calm Calm - N/A   Clear
4:54 AM 71.1 °F - 68.0 °F 90% 30.09 in 7.0 mi Calm Calm - N/A   Clear
5:54 AM 71.1 °F - 68.0 °F 90% 30.09 in 5.0 mi East 3.5 mph - N/A   Clear
6:54 AM 73.0 °F - 68.0 °F 84% 30.10 in 7.0 mi Calm Calm - N/A   Clear
7:54 AM 75.9 °F - 69.1 °F 79% 30.11 in 10.0 mi SE 4.6 mph - N/A   Clear
8:54 AM 78.1 °F - 69.1 °F 74% 30.11 in 9.0 mi SSE 3.5 mph - N/A   Clear
9:54 AM 81.0 °F 84.1 °F 69.1 °F 67% 30.10 in 10.0 mi SW 8.1 mph 18.4 mph N/A   Mostly Cloudy
10:54 AM 81.0 °F 84.1 °F 69.1 °F 67% 30.11 in 10.0 mi SW 6.9 mph - N/A   Mostly Cloudy
11:54 AM 80.1 °F 82.9 °F 69.1 °F 69% 30.11 in 10.0 mi SW 8.1 mph - N/A   Clear
12:54 PM 81.0 °F 84.1 °F 69.1 °F 67% 30.11 in 10.0 mi Calm Calm - N/A   Clear
1:54 PM 80.1 °F 83.8 °F 72.0 °F 76% 30.10 in 8.0 mi Calm Calm - N/A   Clear
2:54 PM 79.0 °F - 71.1 °F 77% 30.10 in 8.0 mi NNE 5.8 mph - N/A   Clear
3:54 PM 80.1 °F 83.2 °F 70.0 °F 71% 30.05 in 6.0 mi NW 3.5 mph - N/A   Haze
4:54 PM 81.0 °F 84.9 °F 71.1 °F 72% 30.06 in 6.0 mi Calm Calm - N/A   Haze
5:54 PM 81.0 °F 84.9 °F 71.1 °F 72% 30.04 in 6.0 mi East 5.8 mph - N/A   Haze
6:54 PM 82.0 °F 87.4 °F 73.0 °F 74% 30.04 in 6.0 mi Calm Calm - N/A   Haze
7:54 PM 80.1 °F 83.6 °F 71.1 °F 74% 30.04 in 6.0 mi Calm Calm - N/A   Haze
8:54 PM 78.1 °F - 70.0 °F 76% 30.05 in 6.0 mi Calm Calm - 0.00 in   Haze
9:54 PM 79.0 °F - 68.0 °F 69% 30.06 in 10.0 mi South 3.5 mph - N/A   Scattered Clouds
10:54 PM 79.0 °F - 68.0 °F 69% 30.06 in 10.0 mi SSE 4.6 mph - N/A   Mostly Cloudy
11:39 PM 73.4 °F - 69.8 °F 88% 30.09 in 2.5 mi NW 11.5 mph 23.0 mph 0.04 in Rain Heavy Rain
11:44 PM 73.4 °F - 68.0 °F 83% 30.09 in 1.5 mi WNW 4.6 mph 23.0 mph 0.15 in Rain Heavy Rain
11:51 PM 73.4 °F - 69.8 °F 88% 30.08 in 2.0 mi Calm Calm - 0.25 in Rain Light Rain
11:54 PM 72.0 °F - 69.1 °F 91% 30.07 in 4.0 mi SE 3.5 mph - 0.25 in Rain Light Rain